Showing default

THAICOM 5, 29163

Orbit data source: Space-Track

THAICOM 5, 29163 is a payload satellite owned by Shinawatra (TH) in GEO that was launched on Sat, 27 May 2006 UTC via an ARIANE 5ECA launch vehicle from the French Guiana (FRGUI). Payload-class satellites include a variety of spacecraft equipped with specific instruments for various scientific and technological missions. These include communications satellites like Starlink; space stations such as the ISS; scientific satellites like the Hubble; Earth observation satellites from companies like Planet Labs, Umbra, and HawkEye 360; GPS; miniature CubeSats for education and research; and military/defense satellites.

Loading next visibility...
Identifier
29163, 2006-020B
Orbit
GEO
Country
Flag of UnknownUnknown / THAI
Related business
Manufacturer
Alcatel Alenia F
Mission
Non-operational Commercial Communications
Bus & Motor
SPACEBUS 3000A, S400
Mass
2,766 kg wet, 1,220 kg dry
Launch date (UTC)
2006-05-27 (19 years ago)
Launch vehicle
ARIANE 5ECA
Launch site
French Guiana (FRGUI)
Object type
Payload
Rocket body
Debris
Shape & HBR
Box + 2 Pan, 13.1 m
Radar Cross Section
24.732 m², Large (>1 m²)

Expand to show TLE details & history
Last TLE update: 20 hours ago

TLE from 20 hours ago
0 THAICOM 5
1 29163U 06020B   25260.16711289 -.00000025  00000-0  00000-0 0  9997
2 29163   5.3105  76.0480 0006781 133.9177  46.7930  0.99206061 70543
Epoch: 2025-09-17T04:00Z
TLE epoch observation values (Epoch: 2025-09-17T04:00:38.553Z)
Latitude
-0.04872°
Longitude
-159.69783°
Altitude
36,067.912 km
Speed
3.065 km/s
True Right ascension
17h 07m 14s
True Declination
0° 02' 55"
Sunlit
Object was in daylight at epoch
Visualization orbit readout
Latitude
Unknown
Longitude
Unknown
Altitude
Unknown
Speed
Unknown
Apparent Right ascension
Unknown
Apparent Declination
Unknown
Sunlit
N/A
Visualization observer readout
Local Sidereal Time
16:40:12
Azimuth
Unknown
Elevation
Unknown
Doppler factor
Unknown
Orbital elements
Apogee altitude
36,117.874 km
Perigee altitude
36,060.28 km
Semi-major axis
42,467.214 km
Eccentricity
0.00068
Inclination
5.3105°
RAAN
76.048°
Arg. of periapsis
133.9177°
True anomaly
46.84967°
Mean anomaly
46.793°
Eccentric anomaly
46.82133°
Mean motion
0.24801 °/min
Orbital period
1,451.58 mins
BSTAR
0
Loading maneuver chart data...
Computing Atmospheric mass density...
Loading historical data...
Loading historical data...
Loading historical data...
Loading historical data...
Loading historical data...
Loading historical data...
Loading historical data...
Other satellites on launch #20 in the year 2006 (2006-05-27 UTC)

Documentation

Showing up to 5 results
|